PST,Max TemperatureF,Mean TemperatureF,Min TemperatureF,Max Dew PointF,MeanDew PointF,Min DewpointF,Max Humidity, Mean Humidity, Min Humidity, Max Sea Level PressureIn, Mean Sea Level PressureIn, Min Sea Level PressureIn, Max VisibilityMiles, Mean VisibilityMiles, Min VisibilityMiles, Max Wind SpeedMPH, Mean Wind SpeedMPH, Max Gust SpeedMPH,PrecipitationIn, CloudCover, Events, WindDirDegrees
2013-11-1,72,59,46,55,48,41,100,72,44,30.15,30.08,30.02,10,10,10,12,4,14,0.00,0,,298
2013-11-2,63,54,45,60,51,42,100,83,66,30.04,29.99,29.93,10,10,8,15,5,18,0.01,2,,294
2013-11-3,63,54,44,52,42,27,100,63,25,30.06,29.99,29.94,10,10,10,18,7,20,0.00,3,,307
2013-11-4,68,56,43,46,38,25,86,56,25,30.07,29.99,29.94,10,10,10,14,7,28,0.00,0,,321
2013-11-5,71,57,42,48,41,32,82,54,25,30.23,30.16,30.07,10,10,10,13,4,23,0.00,1,,283
2013-11-6,68,56,44,54,45,38,86,64,42,30.27,30.21,30.17,10,10,10,9,3,10,0.00,4,,314
2013-11-7,68,58,48,57,49,40,100,69,37,30.18,30.13,30.09,10,10,10,10,3,21,0.00,4,,269
2013-11-8,65,56,47,59,52,46,100,86,72,30.10,30.06,29.97,10,6,0,13,4,17,0.00,3,Fog,263
2013-11-9,69,56,42,56,48,43,100,74,47,30.06,30.01,29.98,10,10,7,13,4,15,0.00,2,Fog,336
2013-11-10,64,55,46,56,49,44,100,81,62,30.13,30.10,30.04,10,8,4,14,5,,0.00,4,Fog,318
2013-11-11,64,57,49,58,52,48,100,84,67,30.18,30.13,30.09,10,8,4,9,4,16,0.00,7,,303
2013-11-12,70,61,51,58,52,47,100,76,52,30.27,30.23,30.17,10,10,10,22,5,20,T,4,,301
2013-11-13,72,60,47,60,52,44,100,82,63,30.27,30.19,30.12,10,10,10,17,6,29,0.00,3,,304
2013-11-14,60,55,49,59,52,45,100,89,77,30.13,30.03,29.90,10,9,6,15,4,17,0.00,6,,264
2013-11-15,63,54,44,53,47,40,93,73,52,29.88,29.82,29.75,10,10,9,18,6,21,0.00,0,,253
2013-11-16,61,53,45,56,48,42,100,79,57,29.94,29.86,29.79,10,10,10,18,7,22,0.00,2,Fog,250
2013-11-17,61,54,47,54,49,46,100,81,62,30.10,30.03,29.95,10,10,10,10,4,16,0.00,5,,274
2013-11-18,59,52,45,53,47,43,100,84,67,30.17,30.12,30.09,10,10,10,13,5,25,0.00,6,,245
2013-11-19,64,59,53,55,50,46,93,81,69,30.12,30.04,29.96,10,9,5,13,6,20,0.44,8,Rain,133
2013-11-20,60,57,53,57,54,48,100,89,78,29.95,29.91,29.86,10,8,2,18,8,47,0.71,8,Rain,223
2013-11-21,64,58,52,54,41,18,93,57,21,29.98,29.94,29.91,10,10,7,33,10,46,0.02,5,Rain,324
2013-11-22,71,63,55,23,14,7,24,17,9,30.03,29.96,29.91,10,10,10,35,17,43,0.00,1,,35
2013-11-23,63,55,47,47,36,23,86,55,24,30.12,30.04,29.98,10,10,10,21,6,30,0.00,0,,149
2013-11-24,61,50,38,44,41,37,89,68,46,30.26,30.19,30.12,10,10,10,7,3,9,0.00,0,Fog,325
2013-11-25,63,51,38,47,42,36,86,71,55,30.34,30.28,30.26,10,10,8,10,4,13,0.00,1,,321
2013-11-26,65,54,42,46,41,38,89,68,46,30.27,30.16,30.04,10,10,8,10,4,12,0.00,6,,56
2013-11-27,61,52,42,47,44,38,86,71,55,30.03,29.92,29.85,10,8,6,10,3,13,0.00,4,,301
2013-11-28,65,55,45,49,44,41,89,67,44,30.09,29.96,29.88,10,9,5,9,3,12,0.00,2,,286
2013-11-29,65,53,41,50,44,38,93,69,44,30.22,30.16,30.09,10,9,5,12,3,13,0.00,0,Fog,310
2013-11-30,64,53,41,48,44,38,96,78,60,30.28,30.25,30.20,10,9,6,10,2,13,0.00,2,Fog,299